User: anonymous   Login
Location: Unspecified
(0.0000°N, 0.0000°E)
Time: 03:26:10
(UTC+01:00)
Language:

Delta 168 - Orbit

View from above orbital plane
View from above orbital plane
View from above satellite
View from above satellite

Ground track
Ground track

The orbit data is extracted from the following two-line orbital elements,

1 14051U 83041B   16336.90845183 +.00001045 +00000-0 +75849-4 0  9991
2 14051 025.3363 249.9830 1099921 206.2375 147.8081 13.07852847552596
Epoch (UTC): 01 December 2016 21:48:10
Eccentricity: 0.1099921
inclination: 25.3363°
perigee height: 394 km
apogee height: 2068 km
right ascension of ascending node: 249.9830°
argument of perigee: 206.2375°
revolutions per day: 13.07852847
mean anomaly at epoch: 147.8081°
orbit number at epoch: 55259

The dashed part of the orbit path shows where the satellite is in the earth's shadow,  

DLR